Tracking 35331 objects as of 14-Sep-2026
HD Live streaming from Space Station
objects crossing your sky now

PSLV DEB


PSLV DEB is no longer on orbit


NORAD ID: 27122
Int'l Code: 2001-049BS
Launch date: October 22, 2001
Source: India (IND)
Launch site: SRIHARIKOTA (SRI)
Decay date: 2002-03-29

Note: This is SATELLITE DEBRIS
Your satellite tracking list
Your tracking list is empty




NASA's NSSDC Master Catalog

Two Line Element Set (TLE):
1 27122U 01049BS  02086.21708236 +.06453944 +00000-0 +71181-1 0  9997
2 27122 097.7748 161.1685 0036425 286.0607 105.2969 15.57722534013710
Source of the keplerian elements: AFSPC